Friday Harbor, WA
on Tuesday, January 29, 2013

Tuesday
Previous Day Next Day
Daily Summary
 ActualAverageRecord
Temperature
Mean Temperature °F °F  
Max Temperature 46°F 45°F 54°F (1998)
Min Temperature 39°F 36°F 28°F (2000)
Degree Days
Heating Degree Days 22    
Moisture
Dew Point 41°F   
Average Humidity 89    
Maximum Humidity 100    
Minimum Humidity 82    
Precipitation
Precipitation 0.06 in in in ()
Wind
Wind Speed 2 mph   
Max Wind Speed 9 mph   
Max Gust Speed 17 mph   
Visibility 9 miles   
Events Rain   
Averages and records for this station are not official NWS values.
Key: T is trace of precipitation, MM is missing value
Source: NWS Daily Summary
Seasonal Weather Averages
Time(PST)TemperatureDew PointHumidity Pressure Visibility Wind DirectionWind SpeedGust SpeedPrecipitationEvents Conditions
12:53 AM 44.1°F 39.0°F 82% 30.07 in 10.0 miles Calm Calm - N/A   Overcast
1:53 AM 42.1°F 37.9°F 85% 30.09 in 10.0 miles Calm Calm - N/A   Overcast
3:53 AM 42.1°F 37.9°F 85% 30.12 in 10.0 miles Calm Calm - N/A   Overcast
4:53 AM 39.9°F 37.9°F 93% 30.15 in 10.0 miles Calm Calm - N/A   Mostly Cloudy
5:53 AM 41.0°F 37.9°F 89% 30.17 in 10.0 miles North 3.5 mph - N/A   Overcast
6:24 AM 41.0°F 37.4°F 87% 30.18 in 10.0 miles Calm Calm - N/A   Overcast
6:53 AM 39.9°F 37.9°F 93% 30.19 in 10.0 miles Calm Calm - N/A   Overcast
7:53 AM 39.0°F 37.9°F 96% 30.22 in 10.0 miles Calm Calm - N/A   Mostly Cloudy
8:23 AM 41.0°F 37.4°F 87% 30.23 in 10.0 miles Calm Calm - N/A   Overcast
8:53 AM 41.0°F 39.0°F 93% 30.25 in 10.0 miles Calm Calm - N/A   Overcast
9:38 AM 42.8°F 39.2°F 87% 30.26 in 10.0 miles Calm Calm - N/A   Overcast
9:46 AM 42.8°F 39.2°F 87% 30.26 in 10.0 miles Calm Calm - N/A   Overcast
9:53 AM 42.1°F 39.9°F 92% 30.27 in 10.0 miles Calm Calm - N/A   Overcast
10:53 AM 43.0°F 39.9°F 89% 30.29 in 10.0 miles Calm Calm - N/A   Overcast
11:20 AM 44.6°F 41.0°F 87% 30.29 in 10.0 miles Calm Calm - N/A   Overcast
11:53 AM 45.0°F 39.9°F 82% 30.29 in 10.0 miles Calm Calm - N/A   Overcast
12:53 PM 44.1°F 39.9°F 85% 30.29 in 10.0 miles Calm Calm - N/A   Overcast
1:53 PM 45.0°F 42.1°F 90% 30.29 in 10.0 miles ESE 3.5 mph - N/A   Overcast
2:15 PM 46.4°F 42.8°F 87% 30.28 in 10.0 miles Calm Calm - N/A   Overcast
2:53 PM 46.0°F 42.1°F 86% 30.28 in 10.0 miles Calm Calm - N/A   Overcast
3:11 PM 46.4°F 42.8°F 87% 30.29 in 10.0 miles Calm Calm - N/A   Overcast
3:53 PM 46.0°F 43.0°F 89% 30.29 in 10.0 miles SW 3.5 mph - N/A   Overcast
4:03 PM 46.4°F 42.8°F 87% 30.28 in 10.0 miles SW 5.8 mph - N/A   Overcast
4:53 PM 46.9°F 43.0°F 86% 30.29 in 10.0 miles SW 9.2 mph - N/A   Overcast
5:53 PM 46.0°F 43.0°F 89% 30.29 in 10.0 miles Variable 6.9 mph - 0.00 in Rain Light Rain
6:53 PM 46.0°F 43.0°F 89% 30.30 in 10.0 miles SW 6.9 mph - 0.01 in Rain Light Rain
7:53 PM 46.0°F 43.0°F 89% 30.30 in 10.0 miles SW 6.9 mph - 0.00 in Rain Light Rain
8:53 PM 46.9°F 42.1°F 83% 30.30 in 10.0 miles SW 8.1 mph 17.3 mph 0.00 in   Overcast
9:53 PM 46.0°F 42.1°F 86% 30.30 in 10.0 miles SSE 5.8 mph - 0.00 in Rain Light Rain
10:15 PM 44.6°F 42.8°F 93% 30.30 in 6.0 miles South 5.8 mph - 0.01 in Rain Light Rain
10:27 PM 44.6°F 44.6°F 100% 30.30 in 6.0 miles SSW 5.8 mph - 0.01 in Rain Light Rain
10:53 PM 45.0°F 43.0°F 93% 30.31 in 4.0 miles South 9.2 mph - 0.03 in Rain Light Rain
11:18 PM 44.6°F 42.8°F 93% 30.31 in 4.0 miles SSE 6.9 mph - 0.02 in Rain Light Rain
11:53 PM 44.1°F 43.0°F 96% 30.32 in 4.0 miles SSE 6.9 mph - 0.02 in Rain Light Rain
Moon Phase
Jan. 29 Feb. 03 Feb. 10 Feb. 17 Feb. 25
Sunrise:07:44 AM (PST) Moon Rise:08:28 PM (PST)1/29
Sunset:05:06 PM (PST) Moon Set:08:27 AM (PST)1/29

Copyright © 2014 The Weather Underground, Inc.